Location: Blue Pit
(43.1414°N, 93.2208°W)
Time: 00:48:24
(UTC+00:00)

Okean 2 Rocket - Pass Details

Date: 18 November 2025
Orbit: 611 x 635 km, 82.5° (Epoch: 08 December)

Event Time Altitude Azimuth Distance (km) Brightness Sun altitude
Rises 23:38:29 0° 158° (SSE) 2,885 6.4 -9.7°
Reaches altitude 10° 23:40:58 10° 145° (SE) 1,980 5.5 -10.1°
Maximum altitude 23:44:37 26° 89° (E) 1,220 4.0 -10.8°
Drops below altitude 10° 23:48:15 10° 33° (NNE) 1,982 5.2 -11.4°
Enters shadow 23:49:10 - 27° (NNE) 2,304 5.6 -11.6°
